Overview Statistics Trail Chart Weather Telemetry Raw packets
 

This is the latest recevied weather packets stored in our database for station/object K9MWD. If no packets are shown the sender has not sent any weather packets the latest 10 day(s).

<< 22 23 24 25 26 27 28 >>
Time Temp. Humidity Pressure Rain* Wind** Luminosity Snow
1788482142 28.89° C 72% 1012.3 hPa 0 mm - 13 W/m² -
1788481837 28.89° C 72% 1012.3 hPa 0 mm - 18 W/m² -
1788481533 28.89° C 71% 1012 hPa 0 mm - 24 W/m² -
1788481232 29.44° C 70% 1012.3 hPa 0 mm - 30 W/m² -
1788480928 29.44° C 70% 1012.1 hPa 0 mm - 35 W/m² -
1788480628 29.44° C 70% 1012 hPa 0 mm - 41 W/m² -
1788480327 30° C 70% 1012.1 hPa 0 mm - 47 W/m² -
1788480024 30° C 70% 1011.8 hPa 0 mm - 55 W/m² -
1788479733 30.56° C 69% 1012 hPa 0 mm - 64 W/m² -
1788479419 30.56° C 69% 1011.9 hPa 0 mm - 76 W/m² -
1788479114 30.56° C 67% 1012 hPa 0 mm - 82 W/m² -
1788478810 31.67° C 61% 1011.8 hPa 0 mm - 86 W/m² -
1788478506 31.67° C 60% 1011.7 hPa 0 mm - 92 W/m² -
1788478201 31.67° C 58% 1011.9 hPa 0 mm - 104 W/m² -
1788477897 31.67° C 58% 1011.7 hPa 0 mm - 113 W/m² -
1788477596 32.22° C 56% 1011.7 hPa 0 mm - 131 W/m² -
1788477292 31.67° C 57% 1011.7 hPa 0 mm - 147 W/m² -
1788476991 31.67° C 58% 1011.6 hPa 0 mm - 166 W/m² -
1788476687 31.67° C 57% 1011.6 hPa 0 mm - 180 W/m² -
1788476384 31.67° C 57% 1011.7 hPa 0 mm - 196 W/m² -
1788476078 31.67° C 58% 1011.6 hPa 0 mm - 166 W/m² -
1788475775 31.67° C 57% 1011.5 hPa 0 mm - 205 W/m² -
1788475471 31.67° C 57% 1011.6 hPa 0 mm - 136 W/m² -
1788475167 31.67° C 56% 1011.6 hPa 0 mm - 271 W/m² -
1788474866 31.67° C 58% 1011.6 hPa 0 mm - 294 W/m² -

* Rain latest hour (hover to see other rain measurements)
** Current wind speed in m/s (hover to see current wind gust speed)